Weather in Abramkovo

Russia / Arkhangel'skaya Oblast'     62°05′25″N   45°06′10″E
temp.,
°C
wind,
m/s
gust,
m/s
humid.,
%
clouds,
%
prec.,
mm/h
press.,
hPa
HPBL,
m
17 april, sat
sat1700:000wnw22945 0.0 103236
03:00−1wnw239639 0.0 103358
06:00+1wnw24884 0.0 1033123
09:00+6wnw355743 0.0 1032555
12:00+10nw46438 0.0 10311084
15:00+11nw474136 0.0 10301401
18:00+9nw49535 0.0 1028861
21:00+5wnw412735 0.0 1028378
18 april, sun
sun1800:00+4nnw310835 0.0 1029459
03:00+3ne588188 0.1 1031653
06:00−1ne49695 0.0 1034587
09:00+2ene45435 0.0 10351052
12:00+5ene45334 0.0 10361523
15:00+6ene34315 0.0 10351693
18:00+5e34405 0.0 10361199
21:00+1e27635 0.0 1037160
19 april, mon
mon1900:00−1e25695 0.0 1038125
03:00−1e24695 0.0 103999
06:000ese24607 0.0 1039176
09:00+4ese2240100 0.0 1039847
12:00+6ese2233100 0.0 10381275
15:00+7ese22301 0.0 10371352
18:00+6ese11410 0.0 103633
21:00+1se22540 0.0 103710
20 april, tue
tue2000:000sse11610 0.0 103711
03:00−1sse11650 0.0 103710
06:00+1s12600 0.0 103791
09:00+6sse22392 0.0 1036727
12:00+9sse23314 0.0 10351389
15:00+10sse23290 0.0 10321449
18:00+9sse25390 0.0 1031159
21:00+3se22580 0.0 103037
21 april, wed
wed2100:00+2se276628 0.0 1030121
03:000se287398 0.0 1029174
06:00+2ese4126497 0.0 1027399
09:00+7se61343100 0.0 1024931
12:00+10se71535100 0.0 10211345
15:00+10sse71538100 0.0 10181628
18:00+7sse71657100 0.0 10171327
21:00+6sse61464100 0.0 10151177